Regional Weather Roundup
Issued by NWS

Home | Current Version | Previous Version | Text Only | Print | Product List | Glossary Off
Versions: 1 2 3 4 5 6 7 8 9 10 11 12 13 14 15 16 17 18 19 20 21 22 23 24 25 26 27 28 29 30 31 32 33 34 35 36 37 38 39 40 41 42 43 44 45 46 47 48 49 50

911
ASUS43 KLSX 240507
RWRMO

WEATHER SUMMARY FOR MISSOURI
NATIONAL WEATHER SERVICE SPRINGFIELD MO
1200 AM CDT SUN SEP 24 2017

NOTE: "FAIR" INDICATES FEW OR NO CLOUDS BELOW 12,000 FEET WITH NO
       SIGNIFICANT WEATHER AND/OR OBSTRUCTIONS TO VISIBILITY.
       CURRENT SKY AND/OR WEATHER CONDITIONS ARE NOT AVAILABLE FOR
       CHILLICOTHE AND FARMINGTON.

MOZ001>031-035>038-043-044-053-054-240600-
...NORTHERN AND WESTERN MISSOURI...

CITY           SKY/WX    TMP DP  RH WIND       PRES   REMARKS
KANSAS CTY INT CLEAR     73  67  81 SE9       29.96S
KANSAS C DTWN  CLEAR     81  69  67 SE10      29.94F
LEE`S SUMMIT   CLEAR     76  68  76 SE6       29.97S
ST JOSEPH      CLEAR     69  68  96 CALM      29.94F
CHILLICOTHE      N/A     71  68  90 CALM      29.98S
KIRKSVILLE     CLEAR     71  62  73 SE6       30.01S

$$
MOZ066>068-077>081-088>096-101>105-240600-
...SOUTHWEST MISSOURI...

CITY           SKY/WX    TMP DP  RH WIND       PRES   REMARKS
SPRINGFIELD    CLEAR     74  65  73 SE8       29.99S
JOPLIN         CLEAR     77  65  66 SE10      29.96S
BRANSON          N/A     73  64  73 CALM      30.01F

$$
MOZ032>034-039>042-045>050-055>058-069>072-240600-
...CENTRAL MISSOURI...

CITY           SKY/WX    TMP DP  RH WIND       PRES   REMARKS
COLUMBIA       CLEAR     75  64  68 SE8       30.00S
JEFFERSON CITY CLEAR     74  64  71 E5        29.98S
ROLLA          CLEAR     74  63  68 SE8       30.02F
SEDALIA        CLEAR     74  69  85 SE5       29.98F
WHITEMAN AFB   CLEAR     72  72 100 SE3       29.96S
WARRENSBURG    CLEAR     72  66  83 E3        29.95F
OSAGE BEACH    CLEAR     72  66  81 SE3       30.00S

$$
MOZ051-052-059>065-240600-
...EAST CENTRAL MISSOURI...

CITY           SKY/WX    TMP DP  RH WIND       PRES   REMARKS
ST LOUIS INTL  CLEAR     80  62  54 S7        30.02S
SPIRIT OF STL  CLEAR     69  67  93 CALM      30.00S
ST CHARLES     CLEAR     70  64  81 CALM      30.00S

$$
MOZ072>076-082>087-097>100-106>115-240600-
...SOUTH CENTRAL AND SOUTHEAST MISSOURI...

CITY           SKY/WX    TMP DP  RH WIND       PRES   REMARKS
CAPE GIRARDEAU CLEAR     71  66  84 NE3       30.00S
FARMINGTON     CLEAR     67  64  90 CALM      30.04S
POPLAR BLUFF   CLEAR     70  67  90 N3        29.99S
WEST PLAINS    CLEAR     66  63  90 CALM      30.04S

$$



USA.gov is the U.S. government's official web portal to all federal, state and local government web resources and services.